Location: Andelfingen
(47.5948°N, 8.6797°E)
Time: 11:46:21
(UTC+00:00)

Daily predictions for brighter satellites

Satellite Brightness Start Highest point End
(mag) Time Altitude Azimuth Time Altitude Azimuth Time Altitude Azimuth
Cosmos 405 Rocket 3.4 19:40:36 10° SSW 19:44:27 60° WNW 19:48:24 10° N
Cosmos 2360 4.5 19:39:01 10° NNW 19:44:41 59° ENE 19:50:16 10° SE
Resurs 01 Rocket 1.7 19:40:19 10° SSE 19:44:42 66° ENE 19:49:08 10° N
Cosmos 1437 Rocket 3.0 19:42:30 10° NNW 19:46:18 70° W 19:50:09 10° S
In-Cosmos 22 Rocket 4.4 19:42:52 10° SSW 19:48:09 73° WNW 19:53:32 10° N
MetOp-B 4.4 19:44:33 10° SE 19:49:45 55° ENE 19:54:59 10° N
SL-16 R/B 4.2 19:46:26 10° N 19:50:08 17° NE 19:53:49 10° E
OBJECT-B 3.2 19:48:09 10° SSW 19:50:43 22° W 19:53:20 10° NW
SPOT 1/Viking Rocket 4.0 19:46:52 10° SE 19:51:50 49° ENE 19:56:52 10° N
BREEZE-M DEB (TANK) 3.7 19:38:38 10° WSW 19:52:38 85° NNW 19:56:23 10° ENE
USA 234 4.3 19:48:06 10° E 19:54:12 43° N 20:00:18 10° WNW
Cosmos 1825 Rocket 4.5 19:50:35 10° SSW 19:54:49 52° WNW 19:59:04 10° N
USA 245 4.4 19:54:51 10° SE 20:00:13 49° ENE 20:04:44 10° N
RESURS DK-1 3.6 19:57:34 10° SSE 20:00:50 23° ESE 20:04:08 10° NE
BREEZE-M DEB (TANK) 2.1 19:58:17 10° WNW 20:00:56 82° NNE 20:07:02 10° ESE
Cosmos 1408 4.0 19:58:29 10° SSW 20:01:57 40° WNW 20:05:25 10° N
Cosmos 44 Rocket 3.8 19:57:18 10° S 20:02:09 42° ESE 20:07:04 10° NE
GENESIS II 4.3 19:59:22 10° NNW 20:03:15 65° NE 20:06:52 12° SE
Ariane Rocket 3.7 19:59:40 10° S 20:04:39 56° W 20:09:40 10° NNW
Cosmos 1437 2.9 20:07:58 10° NNW 20:10:42 56° W 20:13:25 10° S
SPOT 5 3.7 20:07:14 11° SE 20:10:48 30° ENE 20:14:35 10° N
Cosmos 1818 4.3 20:06:26 10° SW 20:11:49 60° NW 20:17:16 10° NNE
ARIANE 5 R/B 3.4 20:08:22 11° SE 20:12:17 38° ENE 20:16:27 10° N
CZ-2C R/B 3.9 20:10:31 10° NNE 20:15:00 51° E 20:19:22 10° S
Cosmos 1633 2.9 20:13:26 10° SSE 20:16:52 44° E 20:20:20 10° NNE
Cosmos 1697 Rocket 2.9 20:11:11 10° NNW 20:16:52 76° WSW 20:22:30 10° SSE
ERS-2 3.2 20:16:25 10° N 20:19:57 47° WNW 20:23:27 10° SW
ISS -2.7 20:18:43 10° WNW 20:21:59 43° N 20:25:14 10° E
Cosmos 2221 2.7 20:19:46 10° NNW 20:24:03 73° W 20:28:20 10° S
Cosmos 2278 4.0 20:18:29 10° NNW 20:24:05 58° ENE 20:28:45 15° SE
Cosmos 2082 Rocket 2.3 20:19:55 10° S 20:25:22 54° ESE 20:30:52 10° NE
Cosmos 371 Rocket 3.7 20:22:09 10° NNW 20:26:51 49° ENE 20:30:30 16° SE
CARTOSAT-1 3.7 20:23:15 14° SSE 20:26:56 61° ENE 20:31:13 10° N
Cosmos 1833 Rocket 2.9 20:24:01 10° SSW 20:29:39 76° WNW 20:35:20 10° NNE
Terra 2.7 20:29:10 15° SE 20:32:34 37° ENE 20:36:57 10° N
SPOT 3 Rocket 4.1 20:27:45 10° S 20:32:53 59° WSW 20:38:04 10° NNW
Cosmos 1242 Rocket 4.4 20:30:10 10° NNW 20:33:19 28° W 20:36:24 10° SSW
Gbstr 26 Del rocket 3.6 20:29:51 10° WNW 20:33:28 46° N 20:37:22 10° E
BREEZE-M DEB (TANK) 3.6 20:31:01 10° SW 20:34:44 54° SE 20:47:35 10° ENE
Cosmos 1092 Rocket 4.4 20:30:54 12° SSE 20:36:21 46° E 20:42:20 10° NNE
NOSS 3-4 (A) 4.0 20:33:00 10° SW 20:38:48 60° NW 20:45:06 10° NE
NOSS 3-4 (C) 4.0 20:33:06 10° SW 20:38:54 61° NW 20:45:12 10° NE
Cosmos 773 Rocket 4.0 20:34:18 10° SSW 20:39:31 86° ESE 20:44:44 10° NNE
Cosmos 2360 Rocket 4.2 20:37:00 10° N 20:40:56 19° NE 20:44:49 10° E
USA 276 2.9 20:38:12 10° W 20:41:19 52° N 20:44:24 10° ENE
ATLAS 2AS CENTAUR R/B 3.1 20:39:48 10° SW 20:47:45 89° NW 20:55:31 10° NE
Cosmos 1606 3.4 20:44:16 10° NNW 20:47:56 50° W 20:51:16 12° S
Cosmos 2369 4.1 20:45:28 10° NW 20:51:01 58° WSW 20:55:33 15° S
COSMOS 2406 3.9 20:46:12 10° SW 20:51:47 58° WNW 20:57:26 10° NNE
Meteor 2-3 Rocket 4.0 20:47:27 15° SSE 20:51:53 52° E 20:57:24 10° NNE
ERBS 2.6 20:50:20 10° WNW 20:53:29 50° SW 20:54:49 28° SSE
Cosmos 2026 Rocket 4.3 20:51:04 16° SSE 20:55:57 53° E 21:02:04 10° NNE
Cosmos 1812 4.4 20:54:49 10° NNE 20:57:48 21° ENE 20:59:11 17° E
Cosmos 1782 3.5 20:55:16 10° N 20:59:07 41° ENE 21:00:54 26° SE
Cosmos 2151 2.9 20:57:41 16° S 21:00:58 80° E 21:05:15 10° NNE
USA 267 3.4 20:55:43 10° ENE 21:02:05 52° SE 21:08:26 10° SSW
Cosmos 332 Rocket 4.0 20:57:15 10° NNW 21:02:06 62° ENE 21:04:54 25° SE
GP-B 3.0 20:57:45 10° N 21:02:13 75° E 21:05:05 22° S
Nadezhda 4 Rocket 4.2 20:56:11 10° SSW 21:02:19 73° W 21:08:33 10° N
Cosmos 1980 Rocket 2.5 20:57:17 10° NNW 21:02:51 63° WSW 21:06:48 19° S
ERS-1 Rocket 3.0 21:00:53 20° SSE 21:04:26 85° WSW 21:09:30 10° NNW
Spot 2 Rocket 3.9 21:01:00 15° S 21:05:09 60° WSW 21:10:14 10° NNW
ATLAS 3B R/B 2.8 20:58:50 10° NW 21:05:57 85° SW 21:11:03 22° SE
Cosmos 2322 Rocket 3.1 21:04:56 10° NNW 21:10:14 39° NE 21:13:48 19° ESE
Cosmos 1151 Rocket 3.4 21:11:16 10° N 21:15:32 51° ENE 21:17:20 30° SE
Meteor 2-19 Rocket 4.5 21:10:39 10° SSW 21:16:36 82° W 21:22:42 10° N
CZ-4B DEB 4.2 21:17:39 45° SE 21:18:28 69° ENE 21:21:37 10° N
Cosmos 1538 Rocket 4.0 21:13:43 10° SSW 21:18:57 86° WNW 21:24:11 10° NNE
BREEZE-M DEB (TANK) 1.8 21:16:58 10° W 21:19:09 62° N 21:19:23 54° NE
Resurs 01 Rocket 4.2 21:19:10 10° WSW 21:21:39 15° W 21:24:09 10° NW
Okean 3 Rocket 4.0 21:20:47 31° SE 21:22:27 47° E 21:26:46 10° NNE
Cosmos 158 Rocket 3.9 21:19:19 16° SSW 21:23:25 77° ESE 21:28:41 10° NNE
Cosmos 2098 Rocket 4.5 21:22:18 10° SW 21:24:46 23° WNW 21:27:28 10° NNW
Cosmos 1428 Rocket 4.4 21:23:34 18° S 21:28:23 89° E 21:34:33 10° N
Cosmos 1553 Rocket 4.0 21:25:37 10° N 21:31:40 65° ENE 21:34:51 29° SSE
H-2A R/B 3.5 21:28:24 10° NNE 21:32:34 65° ESE 21:34:07 36° S
SL-16 R/B 2.3 21:29:36 10° NNW 21:35:18 73° ENE 21:38:08 31° SE
USA 234 3.4 21:31:41 18° ESE 21:36:45 76° NNE 21:43:19 10° NW
Cosmos 2219 Rocket 4.2 21:34:08 10° N 21:38:14 20° NE 21:42:20 10° E
RESURS DK-1 3.7 21:34:42 10° SW 21:38:38 40° NW 21:42:36 10° NNE
Cosmos 1271 Rocket 3.3 21:37:15 10° NNW 21:41:07 52° W 21:42:41 31° SSW
ARIANE 5 R/B 4.4 21:45:54 14° SW 21:48:50 25° W 21:52:35 10° NW
SPOT 5 4.0 21:46:28 18° SW 21:48:52 30° W 21:52:43 10° NW
Cosmos 304 Rocket 4.2 21:46:22 10° NNW 21:51:03 53° WSW 21:52:54 33° SSW
Cosmos 1417 Rocket 4.5 21:51:42 10° N 21:58:06 84° E 22:01:06 34° SSE
Cosmos 1408 Rocket 3.7 21:57:11 47° SE 21:58:07 58° E 22:02:24 10° NNE
S3M 4.1 21:52:31 10° N 21:58:54 71° E 22:01:50 34° SSE
ISS -3.8 21:55:35 10° WNW 21:58:48 68° SW 21:58:48 68° SW
Cosmos 923 Rocket 4.1 22:02:24 23° SSW 22:05:45 78° WNW 22:11:09 10° NNE
COBE Rocket 3.8 22:06:55 45° SE 22:08:14 70° ENE 22:12:53 10° N
Meteor 2-14 Rocket 4.4 22:05:49 29° SSW 22:09:11 83° W 22:15:23 10° N
Cosmos 2082 Rocket 4.0 22:04:50 10° WSW 22:09:45 30° NW 22:14:43 10° NNE
Terra 3.3 22:08:03 20° SW 22:10:23 29° W 22:14:33 10° NW
Cosmos 220 Rocket 3.9 22:08:53 10° NNW 22:13:13 84° WSW 22:14:04 57° SSE
Cosmos 2056 Rocket 3.5 22:12:13 10° NNW 22:17:40 88° ENE 22:19:23 45° SSE
USA 276 2.7 22:14:30 10° WNW 22:17:00 52° WNW 22:17:00 52° WNW
Cosmos 1515 Rocket 3.5 22:13:38 10° N 22:18:07 84° W 22:19:04 55° S
Sich 1 4.5 22:17:56 24° E 22:18:09 24° E 22:21:39 10° NE
Cosmos 2333 Rocket 3.1 22:13:27 10° NNW 22:18:47 40° NE 22:21:43 23° ESE
ATLAS 5 CENTAUR R/B 4.1 22:15:08 10° NNW 22:19:25 25° NNE 22:24:18 10° E
Gbstr 26 Del rocket 2.7 22:16:34 10° WNW 22:20:25 74° SSW 22:20:51 66° SSE
Cosmos 2360 Rocket 2.1 22:20:10 10° NNW 22:25:50 81° ENE 22:27:48 43° SE
Cosmos 1862 3.7 22:25:14 46° SW 22:26:08 58° WNW 22:30:05 10° N
IRIDIUM 114 4.4 22:21:03 10° N 22:26:16 68° E 22:27:43 46° SSE
ALOS 2 2.9 22:26:42 45° ESE 22:27:34 54° ENE 22:31:52 10° N
Cosmos 1812 3.9 22:30:09 10° NNW 22:33:38 33° W 22:34:14 31° WSW
Cosmos 2322 4.4 22:28:48 10° NNW 22:34:22 49° NE 22:37:00 29° ESE
IRIDIUM 103 4.2 22:30:11 10° N 22:35:27 81° E 22:36:51 50° SSE
Cosmos 1371 Rocket 4.3 22:33:16 10° NNW 22:38:32 57° WSW 22:39:57 43° SSW
Cosmos 2112 Rocket 4.4 22:37:57 28° SW 22:40:42 61° WNW 22:45:57 10° NNE
SL-27 R/B 2.5 22:43:09 76° NNE 22:43:09 76° NNE 22:46:30 10° NNE
Cosmos 1680 Rocket 4.2 22:39:42 22° SW 22:42:54 51° WNW 22:48:03 10° NNE
USA 267 3.7 22:38:45 10° NE 22:45:13 64° NNW 22:51:41 10° WSW
Cosmos 2084 3.4 22:51:07 63° E 22:51:07 63° E 22:54:56 10° NE
COSMOS 2487 4.1 22:52:30 24° ENE 22:52:30 24° ENE 22:54:21 10° NE
Cosmos 2237 Rocket 4.2 22:47:50 10° N 22:52:16 23° NE 22:56:42 10° E
IRIDIUM 106 4.4 22:48:32 10° N 22:53:45 72° W 22:55:07 48° SSW
Cosmos 2322 Rocket 2.9 22:49:06 10° NW 22:54:16 38° WSW 22:55:35 33° SW
ATLAS 3B R/B 4.3 22:50:47 10° WNW 22:55:49 21° WSW 22:58:17 18° SW
Cosmos 2285 Rocket 4.1 22:50:03 10° NNW 22:56:21 68° ENE 22:58:54 37° SE
Cosmos 2315 Rocket 4.0 22:54:32 10° NNW 23:00:50 76° W 23:03:02 43° S
NOSS 2-1 (C) 3.4 23:02:14 58° N 23:02:14 58° N 23:05:08 10° NE
Cosmos 1805 Rocket 3.4 23:02:35 71° S 23:03:03 86° E 23:07:32 10° N
NOSS 2-1 (D) 3.4 23:09:39 55° NNW 23:09:39 55° NNW 23:12:48 10° NE
Meteor 1-27 Rocket 4.2 23:08:22 10° NNW 23:13:45 51° W 23:15:18 40° SW
Cosmos 1500 Rocket 4.4 23:14:13 36° WSW 23:15:11 41° WNW 23:19:23 10° N
COSMOS 2428 2.8 23:10:38 10° NNW 23:16:20 69° ENE 23:18:23 40° SE
Cosmos 2333 4.1 23:10:53 10° NNW 23:16:29 73° WSW 23:17:46 53° S
PSLV R/B 4.4 23:12:05 10° NNE 23:16:38 42° E 23:17:06 41° ESE
SL-16 R/B 3.8 23:14:50 10° NW 23:18:46 20° W 23:19:59 18° WSW
Cosmos 1500 4.0 23:19:16 40° E 23:19:16 40° E 23:22:36 10° NNE
USA 234 3.7 23:19:01 37° SSW 23:20:05 40° SW 23:26:11 10° WNW
Cosmos 1602 3.7 23:21:42 78° NE 23:21:42 78° NE 23:25:25 10° N
Cosmos 292 Rocket 4.4 23:18:12 10° NW 23:22:40 41° WSW 23:23:00 40° WSW
Cosmos 2219 Rocket 2.1 23:17:21 10° NNW 23:22:59 89° W 23:24:30 51° SSE
Cosmos 1048 Rocket 3.9 23:23:23 58° SSE 23:24:11 67° ESE 23:29:17 10° NNE
Cosmos 2228 Rocket 3.9 23:25:44 10° NNW 23:29:47 37° W 23:30:09 36° WSW
SL-08 ROCKET BODY 4.4 23:29:43 48° S 23:31:30 77° E 23:37:37 10° NNE
Thor Agena Rocket 3.5 23:27:03 10° NNE 23:32:07 68° ESE 23:32:59 56° SSE
SL-08 R/B 4.5 23:31:53 45° SSE 23:33:51 72° E 23:40:02 10° NNE
Cosmos 494 Rocket 4.0 23:33:22 56° SSE 23:34:07 63° ESE 23:39:11 10° NNE
Cosmos 489 Rocket 4.4 23:34:52 46° S 23:36:52 79° ESE 23:43:14 10° NNE
COSMOS 2455 2.7 23:35:08 48° SSW 23:36:57 80° ESE 23:43:00 10° NE
Nimbus 7 Rocket 4.5 23:32:02 10° NNE 23:38:04 75° WNW 23:40:13 42° SW
NOSS 0 Rocket 4.2 23:33:23 10° NNW 23:39:37 65° ENE 23:42:50 29° SE
Cosmos 1470 Rocket 4.0 23:40:37 45° ESE 23:40:54 46° E 23:45:03 10° NNE
Cosmos 1340 Rocket 4.3 23:45:19 25° E 23:45:21 25° E 23:48:37 10° NE
Cosmos 1515 4.4 23:42:17 10° NNW 23:45:31 42° WNW 23:45:31 42° WNW
Cosmos 1933 Rocket 4.5 23:47:27 35° ESE 23:48:00 36° E 23:52:07 10° NNE
Cosmos 1745 Rocket 4.1 23:46:52 43° SSE 23:48:53 66° E 23:55:05 10° NNE
Cosmos 1666 Rocket 3.5 23:49:24 64° WSW 23:49:49 69° W 23:54:16 10° N
Cosmos 1633 Rocket 2.9 23:49:55 73° SW 23:50:17 82° W 23:54:41 10° N
Cosmos 1452 Rocket 3.9 23:45:33 10° NNW 23:50:31 44° WSW 23:51:09 42° SW
Helios 1A 4.5 23:50:54 24° ESE 23:52:24 31° ENE 23:56:09 10° N
Okean 1-7 4.2 23:48:40 10° N 23:52:34 34° ENE 23:53:38 29° ESE
Meteor 1-18 Rocket 4.3 23:46:42 10° NNW 23:52:37 76° W 23:54:13 49° S
Sich 1 4.0 23:54:53 33° W 23:55:38 36° WNW 23:59:41 10° N
